• en France
  • Liste des pays
  • À 7 jours
  • Température de l'eau
  • Carte satellitaire
  • Carte météo
  • Widgets météo
  • user-avatar
    Se connecter

    Météo par heure à Pontypool

    Ce jour, 18 Novembre, Samedi

    Heure Température Précipitation Vent Pression Humidité
    00:00 +2°C° 0 mm 3 m/s 755 mmHg 89%
    01:00 +2°C° 0 mm 3 m/s 754 mmHg 89%
    02:00 +2°C° 0 mm 3 m/s 754 mmHg 90%
    03:00 +2°C° 0 mm 3 m/s 754 mmHg 90%
    04:00 +3°C° 0 mm 3 m/s 753 mmHg 91%
    05:00 +3°C° 0 mm 3 m/s 753 mmHg 91%
    06:00 +4°C° 0 mm 4 m/s 753 mmHg 92%
    07:00 +5°C° 0,2 mm 4 m/s 753 mmHg 93%
    08:00 +6°C° 0,2 mm 4 m/s 753 mmHg 93%
    09:00 +7°C° 0,2 mm 5 m/s 753 mmHg 94%
    10:00 +7°C° 0,4 mm 5 m/s 752 mmHg 94%
    11:00 +7°C° 0,4 mm 5 m/s 752 mmHg 94%
    12:00 +8°C° 0,4 mm 5 m/s 752 mmHg 94%
    13:00 +8°C° 0,1 mm 4 m/s 752 mmHg 93%
    14:00 +8°C° 0,1 mm 4 m/s 752 mmHg 93%
    15:00 +8°C° 0,1 mm 4 m/s 751 mmHg 92%
    16:00 +8°C° 0,4 mm 3 m/s 751 mmHg 92%
    17:00 +8°C° 0,4 mm 3 m/s 751 mmHg 93%
    18:00 +7°C° 0,4 mm 3 m/s 751 mmHg 93%
    19:00 +7°C° 0,1 mm 2 m/s 751 mmHg 92%
    20:00 +6°C° 0,1 mm 2 m/s 752 mmHg 91%
    21:00 +6°C° 0,1 mm 2 m/s 752 mmHg 90%
    22:00 +6°C° 0 mm 2 m/s 752 mmHg 90%
    23:00 +5°C° 0 mm 2 m/s 752 mmHg 90%

    Demain, 19 Novembre, Dimanche

    Heure Température Précipitation Vent Pression Humidité
    00:00 +6°C° 0 mm 1 m/s 752 mmHg 89%
    01:00 +5°C° 0 mm 1 m/s 752 mmHg 89%
    02:00 +5°C° 0 mm 1 m/s 752 mmHg 89%
    03:00 +5°C° 0 mm 1 m/s 752 mmHg 89%
    04:00 +5°C° 0 mm 1 m/s 752 mmHg 88%
    05:00 +5°C° 0 mm 1 m/s 752 mmHg 88%
    06:00 +5°C° 0 mm 1 m/s 752 mmHg 87%
    07:00 +5°C° 0 mm 1 m/s 753 mmHg 86%
    08:00 +6°C° 0 mm 1 m/s 753 mmHg 85%
    09:00 +6°C° 0 mm 1 m/s 753 mmHg 84%
    10:00 +7°C° 0 mm 1 m/s 753 mmHg 83%
    11:00 +8°C° 0 mm 1 m/s 753 mmHg 81%
    12:00 +7°C° 0 mm 2 m/s 753 mmHg 79%
    13:00 +7°C° 0 mm 2 m/s 753 mmHg 82%
    14:00 +7°C° 0 mm 2 m/s 752 mmHg 85%
    15:00 +7°C° 0 mm 2 m/s 752 mmHg 88%
    16:00 +7°C° 0 mm 2 m/s 752 mmHg 90%
    17:00 +7°C° 0 mm 3 m/s 751 mmHg 93%
    18:00 +7°C° 0 mm 3 m/s 751 mmHg 95%
    19:00 +7°C° 0 mm 3 m/s 751 mmHg 95%
    20:00 +6°C° 0 mm 4 m/s 751 mmHg 96%
    21:00 +7°C° 0 mm 4 m/s 750 mmHg 96%
    22:00 +7°C° 0 mm 5 m/s 750 mmHg 95%
    23:00 +8°C° 0 mm 5 m/s 750 mmHg 94%

    Après-demain, 20 Novembre, Lundi

    Heure Température Précipitation Vent Pression Humidité
    00:00 +8°C° 0 mm 6 m/s 750 mmHg 93%
    01:00 +8°C° 0 mm 6 m/s 749 mmHg 92%
    02:00 +8°C° 0 mm 7 m/s 748 mmHg 92%
    03:00 +9°C° 0 mm 7 m/s 748 mmHg 91%
    04:00 +9°C° 0,1 mm 8 m/s 747 mmHg 91%
    05:00 +9°C° 0,1 mm 8 m/s 747 mmHg 91%
    06:00 +10°C° 0,1 mm 8 m/s 747 mmHg 90%
    07:00 +10°C° 0,1 mm 8 m/s 746 mmHg 91%
    08:00 +10°C° 0,1 mm 8 m/s 746 mmHg 91%
    09:00 +10°C° 0,1 mm 8 m/s 746 mmHg 91%
    10:00 +11°C° 0,2 mm 8 m/s 746 mmHg 91%
    11:00 +11°C° 0,2 mm 8 m/s 746 mmHg 91%
    12:00 +11°C° 0,2 mm 8 m/s 745 mmHg 90%
    13:00 +11°C° 0,3 mm 8 m/s 745 mmHg 91%
    14:00 +11°C° 0,3 mm 8 m/s 745 mmHg 91%
    15:00 +11°C° 0,3 mm 8 m/s 745 mmHg 91%
    16:00 +11°C° 0,3 mm 8 m/s 745 mmHg 92%
    17:00 +11°C° 0,3 mm 7 m/s 745 mmHg 92%
    18:00 +11°C° 0,3 mm 6 m/s 745 mmHg 93%
    19:00 +11°C° 0,1 mm 6 m/s 745 mmHg 94%
    20:00 +11°C° 0,1 mm 6 m/s 745 mmHg 94%
    21:00 +11°C° 0,1 mm 6 m/s 745 mmHg 94%
    22:00 +12°C° 0 mm 5 m/s 745 mmHg 94%
    23:00 +10°C° 0 mm 5 m/s 745 mmHg 94%

    21 Novembre, Mardi

    Heure Température Précipitation Vent Pression Humidité
    00:00 +10°C° 0 mm 5 m/s 745 mmHg 94%
    01:00 +10°C° 0 mm 5 m/s 745 mmHg 95%
    02:00 +11°C° 0 mm 4 m/s 745 mmHg 95%
    03:00 +10°C° 0 mm 4 m/s 744 mmHg 95%
    04:00 +10°C° 0 mm 4 m/s 744 mmHg 95%
    05:00 +10°C° 0 mm 4 m/s 744 mmHg 95%
    06:00 +10°C° 0 mm 4 m/s 744 mmHg 94%
    07:00 +9°C° 0 mm 5 m/s 744 mmHg 93%
    08:00 +9°C° 0 mm 5 m/s 744 mmHg 92%
    09:00 +10°C° 0 mm 6 m/s 743 mmHg 91%
    10:00 +10°C° 0 mm 6 m/s 743 mmHg 89%
    11:00 +10°C° 0 mm 7 m/s 743 mmHg 87%
    12:00 +10°C° 0 mm 7 m/s 743 mmHg 85%
    13:00 +10°C° 0 mm 7 m/s 743 mmHg 85%
    14:00 +10°C° 0 mm 7 m/s 742 mmHg 85%
    15:00 +10°C° 0 mm 6 m/s 742 mmHg 85%
    16:00 +10°C° 0 mm 7 m/s 742 mmHg 86%
    17:00 +11°C° 0 mm 7 m/s 742 mmHg 87%
    18:00 +11°C° 0 mm 7 m/s 741 mmHg 87%
    19:00 +11°C° 0 mm 7 m/s 741 mmHg 87%
    20:00 +10°C° 0 mm 7 m/s 741 mmHg 86%
    21:00 +10°C° 0 mm 7 m/s 741 mmHg 86%
    22:00 +10°C° 0 mm 7 m/s 741 mmHg 86%
    23:00 +10°C° 0 mm 7 m/s 740 mmHg 87%

    22 Novembre, Mercredi

    Heure Température Précipitation Vent Pression Humidité
    00:00 +10°C° 0 mm 7 m/s 740 mmHg 88%
    01:00 +10°C° 0 mm 7 m/s 740 mmHg 88%
    02:00 +10°C° 0 mm 7 m/s 739 mmHg 89%
    03:00 +10°C° 0 mm 7 m/s 739 mmHg 90%
    04:00 +10°C° 0 mm 7 m/s 738 mmHg 90%
    05:00 +10°C° 0 mm 7 m/s 738 mmHg 90%
    06:00 +10°C° 0 mm 7 m/s 738 mmHg 90%
    07:00 +10°C° 0 mm 7 m/s 738 mmHg 89%
    08:00 +10°C° 0 mm 7 m/s 737 mmHg 87%
    09:00 +10°C° 0 mm 7 m/s 737 mmHg 86%
    10:00 +11°C° 0 mm 7 m/s 737 mmHg 82%
    11:00 +12°C° 0 mm 8 m/s 737 mmHg 78%
    12:00 +13°C° 0 mm 8 m/s 737 mmHg 74%
    13:00 +12°C° 0 mm 8 m/s 736 mmHg 72%
    14:00 +12°C° 0 mm 7 m/s 736 mmHg 71%
    15:00 +12°C° 0 mm 7 m/s 735 mmHg 70%
    16:00 +11°C° 0 mm 7 m/s 735 mmHg 72%
    17:00 +11°C° 0 mm 6 m/s 735 mmHg 74%
    18:00 +10°C° 0 mm 6 m/s 734 mmHg 76%
    19:00 +10°C° 0 mm 6 m/s 734 mmHg 77%
    20:00 +10°C° 0 mm 6 m/s 733 mmHg 78%
    21:00 +10°C° 0 mm 7 m/s 733 mmHg 79%
    22:00 +10°C° 0 mm 7 m/s 732 mmHg 80%
    23:00 +9°C° 0 mm 7 m/s 732 mmHg 81%

    23 Novembre, Jeudi

    Heure Température Précipitation Vent Pression Humidité
    00:00 +9°C° 0 mm 7 m/s 731 mmHg 82%
    01:00 +9°C° 0 mm 7 m/s 730 mmHg 82%
    02:00 +10°C° 0 mm 7 m/s 729 mmHg 82%
    03:00 +10°C° 0 mm 7 m/s 729 mmHg 81%
    04:00 +10°C° 0 mm 8 m/s 728 mmHg 80%
    05:00 +10°C° 0 mm 8 m/s 727 mmHg 80%
    06:00 +11°C° 0 mm 9 m/s 727 mmHg 79%
    07:00 +11°C° 0,2 mm 10 m/s 726 mmHg 81%
    08:00 +11°C° 0,2 mm 10 m/s 725 mmHg 82%
    09:00 +11°C° 0,2 mm 11 m/s 725 mmHg 84%
    10:00 +10°C° 0,5 mm 12 m/s 724 mmHg 83%
    11:00 +12°C° 0,5 mm 13 m/s 724 mmHg 81%
    12:00 +12°C° 0,5 mm 14 m/s 723 mmHg 80%
    13:00 +10°C° 0,2 mm 14 m/s 724 mmHg 79%
    14:00 +10°C° 0,2 mm 14 m/s 725 mmHg 78%
    15:00 +10°C° 0,2 mm 15 m/s 726 mmHg 76%
    16:00 +9°C° 0 mm 13 m/s 727 mmHg 76%
    17:00 +9°C° 0 mm 12 m/s 728 mmHg 75%
    18:00 +8°C° 0 mm 10 m/s 730 mmHg 75%
    19:00 +8°C° 0 mm 9 m/s 730 mmHg 77%
    20:00 +7°C° 0 mm 8 m/s 731 mmHg 80%
    21:00 +8°C° 0 mm 7 m/s 732 mmHg 82%
    22:00 +9°C° 0,1 mm 6 m/s 732 mmHg 85%
    23:00 +9°C° 0,1 mm 6 m/s 732 mmHg 87%
    Voir plus